Regional Weather Roundup
Issued by NWS Sterling, VA

Home | Current Version | Previous Version | Text Only | Print | Product List | Glossary Off
Versions: 1 2 3 4 5 6 7 8 9 10 11 12 13 14 15 16 17 18 19 20 21 22 23 24 25 26 27

000
ASUS41 KLWX 281111
RWRLWX

REGIONAL WEATHER ROUNDUP
NATIONAL WEATHER SERVICE BALTIMORE MD/WASHINGTON DC
700 AM EDT THU JUL 28 2016

Note: "FAIR" indicates few or no clouds below 12,000 feet
with no significant weather and/or obstructions to visibility.
 TC=TEMPERATURE CELSIUS

 * =Non NWS site. Station does not report precipitation (e.g. rain,
    snow, etc.), thunder, or fog.

DCZ001-MDZ009-015-VAZ040>042-051-053>054-281200-
WASHINGTON METRO

CITY           SKY/WX    TMP DP  RH WIND       PRES   REMARKS
WASHINGTON NAT MOCLDY    83  74  74 SW3       29.91R
DULLES         MOCLDY    75  70  84 W3        29.92R
ANDREWS AFB    CLOUDY    77  75  93 CALM      29.90S
FT BELVOIR     PTCLDY    75  73  94 CALM      29.90R
QUANTICO       MOCLDY    79  74  84 W3        29.91R
COLLEGE PARK*  FAIR      73  72  94 CALM      29.90R
LEESBURG*      FAIR      77  73  88 W9        29.93R
MANASSAS*      CLEAR     75  75 100 CALM      29.91R
GAITHERSBURG*  CLOUDY    73  68  83 CALM      29.96R

$$

MDZ006>007-011-014-281200-
BALTIMORE METRO

CITY           SKY/WX    TMP DP  RH WIND       PRES   REMARKS
BWI AIRPORT    MOCLDY    79  72  79 N3        29.90R
MD SCIENCE CTR   N/A     82  73  74 MISG      29.90S
MARTIN STATE   PTCLDY    77  75  94 CALM      29.91S
ANNAPOLIS      CLOUDY    82  77  84 CALM      29.89S HX  90
FORT MEADE*    PTCLDY    72  70  94 CALM      29.92S

$$

MDZ012-015-019>023-281200-
MARYLAND EASTERN SHORE

CITY           SKY/WX    TMP DP  RH WIND       PRES   REMARKS
OCEAN CITY     SUNNY    N/A N/A N/A CALM      29.91S
SALISBURY      CLEAR     76  75  97 SE3       29.91S FOG
EASTON*        MOCLDY    81  81 100 CALM      29.94R HX  91

$$

MDZ017>025-281200-
SOUTHERN MARYLAND

CITY           SKY/WX    TMP DP  RH WIND       PRES   REMARKS
PATUXENT RIVER PTCLDY    78  75  90 SW5       29.90R
ST INIGOES     CLEAR     79  77  94 CALM      29.89S
LEONARDTOWN*   CLEAR     75  73  94 CALM      29.92R

$$

MDZ003>005-281200-
NORTH CENTRAL MARYLAND

CITY           SKY/WX    TMP DP  RH WIND       PRES   REMARKS
FREDERICK*     CLEAR     73  73 100 CALM      29.94S
HAGERSTOWN APT PTCLDY    74  69  85 CALM      29.93R

$$

MDZ501>502-281200-
WESTERN MARYLAND

CITY           SKY/WX    TMP DP  RH WIND       PRES   REMARKS
OAKLAND*       FOG       68  68 100 S6        30.06R VSB 3/4
CUMBERLAND*    PTCLDY    72  70  94 NE3       29.99S

$$

VAZ025>031-281200-
SHENANDOAH VALLEY

CITY           SKY/WX    TMP DP  RH WIND       PRES   REMARKS
WINCHESTER*    FAIR      73  72  94 CALM      29.94S
FRONT ROYAL*   FAIR      72  70  94 S5        29.94R
LURAY*         FAIR     N/A N/A N/A CALM      29.97R HAZE
NEW MARKET*    FAIR     N/A N/A N/A CALM      29.96R
STAUNTON*      FAIR      69  69  99 CALM      30.00S FOG
WAYNESBORO*    FAIR      70  69  96 CALM      30.00S

$$

WVZ021-048>050-054>055-281200-
EASTERN WEST VIRGINIA PANHANDLE

CITY           SKY/WX    TMP DP  RH WIND       PRES   REMARKS
MARTINSBURG    FAIR      71  69  93 CALM      29.93R
PETERSBURG*    MOCLDY    72  71  97 CALM      29.97R FOG

$$

VAZ036>039-050-281200-
CENTRAL FOOTHILLS

CITY           SKY/WX    TMP DP  RH WIND       PRES   REMARKS
CHARLOTTESVILL MOCLDY    75  72  90 CALM      29.93S
CULPEPER*      FAIR      74  74 100 CALM      29.93R FOG
ORANGE*          N/A     73  73 100 CALM      29.95R
GORDONSVILLE*  PTSUNNY   73  73 100 CALM      29.92S
WARRENTON*     FAIR      74  70  86 CALM      29.92R FOG

$$

VAZ055>057-281200-
NORTH AND CENTRAL PIEDMONT

CITY           SKY/WX    TMP DP  RH WIND       PRES   REMARKS
FREDERICKSBRG* FAIR      75  75 100 CALM      29.91R
STAFFORD*      FAIR      72  71  96 CALM      29.95S FOG

$$

NCZ024-NYZ072-PAZ021-071-VAZ022-071-281200-
OTHER REGIONAL OBSERVATIONS

CITY           SKY/WX    TMP DP  RH WIND       PRES   REMARKS
NEW YORK CITY  MOSUNNY   78  72  81 CALM      29.94R
PHILADELPHIA   PTSUNNY   78  69  73 CALM      29.91S
PITTSBURGH     CLOUDY    71  65  81 CALM      29.94R
ROANOKE        MOCLDY    75  73  93 W6        30.00S
RICHMOND       MOCLDY    75  73  93 CALM      29.91S
RALEIGH        MOCLDY    74  72  93 CALM      29.94R

$$

ANZ530>537-281200-
MARINE OBSERVATIONS

STATION/POSITION TIME  TEMP    WIND        PRES
                       AIR SEA DIR/SP/G
                 (UTC) (F)     (DEG/KT/KT) (MB)
THOMAS PT LIGHT  1100   83 85   CALM  /  2 1013.8R
BALT KEY BRIDGE  1042   81      30/  3/  4 1012.2R
COVE POINT       1042   81     240/  3/  4 1012.9S
LEWISETTA        1042   78 87  250/  5/  6 1012.1S
SOLOMONS ISLAND  1042   82 86  240/  4/  5   N/A
PINEY POINT      1048          260/  6/  8   N/A

$$





USA.gov is the U.S. government's official web portal to all federal, state and local government web resources and services.